OPTOS

导读

OPTOS是由西班牙国家航空航天技术研究所(INTA)研制的3U型CubeSat微纳卫星,于2013年11月21日在俄罗斯奥伦堡通过DNEPR运载火箭发射入轨,运行于太阳同步轨道,整星质量约4千克。该卫星定位为业余技术试验卫星,承担航天技术演示验证与业余航天探索任务,是西班牙早期参与小型卫星研发的代表性项目之一。

Basic Information
目录编号:
39420
目录名称:
OPTOS
国际标识:
2013-066E
轨道中心:
EARTH
卫星名称:
OPTOS
卫星全名:
--
卫星状态:
在轨 (已飞行4671 天)
发射日期:
2013-11-21 UTC
国别 :
西班牙 (ES)
星等 :
--
Orbit Information
数据来源 国际轨道数据
星历时间: 2026-09-04T22:01:46+0800
14小时前
查看轨道信息
半长轴: 7031.274km
偏心率: 0.0117476
轨道倾角: 97.670°
近地点辐角 115.093°
升交点赤经 108.061°
平近点角 246.252°
近地点: 570.536km
远地点: 735.738km
周期: 97.794分钟
每日圈数: 14.724881
Detailed Information
使用方式:
暂无
2D Orbit Map
3D Orbit Map
Orbit Altitude Analysis Chart
Orbit Inclination Analysis Chart
Orbit Comprehensive Analysis Chart
View Comprehensive Chart
Conjunction Data List
Event ID Objects TCA Miss Dist (km) Collision Risk Probability Collision Risk Index (CRI) Action
CDM_260903-095702-043403-942027
SL-8 DEB (20434)
OPTOS (39420)
2026-09-03T
09:57:22+0000
0.356 km
远距离
3.512637E-4 高风险 0.86
CDM_260905-175703-942005-890923
OPTOS (39420)
2026-09-05T
17:57:53+0000
0.690 km
远距离
8.315094E-5 中风险 0.73
CDM_260831-025403-942006-684321
OPTOS (39420)
2026-08-31T
02:54:49+0000
2.836 km
极远距离
1.430381E-6 低风险 0.38